Regional Weather Roundup
Issued by NWS

Home | Current Version | Previous Version | Graphics & Text | Print | Product List | Glossary On
Versions: 1 2 3 4 5 6 7 8 9 10 11 12 13 14 15 16 17 18 19 20 21 22 23 24 25 26 27 28 29 30 31 32 33 34 35 36 37 38 39 40 41 42 43 44 45 46 47 48 49 50
000
ASUS45 KBOI 292310
RWRID

IDAHO REGIONAL WEATHER ROUNDUP
NATIONAL WEATHER SERVICE BOISE ID
500 PM MDT FRI MAY 29 2015

NOTE: "FAIR" INDICATES FEW OR NO CLOUDS BELOW 12000 FEET
WITH NO SIGNIFICANT WEATHER AND/OR OBSTRUCTIONS TO VISIBILITY

IDZ012-014-300000-
SOUTHWEST IDAHO


CITY           SKY/WX    TMP DP  RH WIND       PRES   REMARKS
BOISE          MOSUNNY   84  34  16 VRB6G17   30.00F
CALDWELL       MOSUNNY   84  37  18 S3        29.98F
$$

IDZ016-017-300000-
SOUTHCENTRAL IDAHO


CITY           SKY/WX    TMP DP  RH WIND       PRES   REMARKS
BURLEY         MOSUNNY   76  45  33 E9        30.08F
JEROME         SUNNY     78  41  26 NE10      30.08F
TWIN FALLS     MOSUNNY   79  47  32 NE13      30.05F
$$

IDZ019>023-300000-
SOUTHEAST IDAHO


CITY           SKY/WX    TMP DP  RH WIND       PRES   REMARKS
IDAHO FALLS    MOSUNNY   70  39  32 CALM      30.16F
POCATELLO      SUNNY     73  42  32 NW8       30.15F
REXBURG        SUNNY     68  39  34 W7        30.16F
$$

IDZ006-010-011-018-031-032-300000-
CENTRAL IDAHO MOUNTAINS


CITY           SKY/WX    TMP DP  RH WIND       PRES   REMARKS
MCCALL         PTSUNNY   69  40  34 SW6       30.10F
HAILEY         MOSUNNY   70  41  35 SE12      30.17F
STANLEY          N/A     70  31  23 W7        30.18F
SALMON         CLOUDY    75  45  33 NW7       30.02F
CHALLIS        PTSUNNY   73  34  23 SE5       30.08F
$$

IDZ002-004-006-007-026-300000-
NORTHERN IDAHO


CITY           SKY/WX    TMP DP  RH WIND       PRES   REMARKS
LEWISTON       MOSUNNY   88  42  20 SW9       29.89F
LOWELL           N/A     86  46  24 VRB5      29.89F
COEUR D`ALENE  MOSUNNY   81  46  30 W3        29.94F
MULLAN PASS    PTSUNNY   67  43  41 VRB3      30.13F
$$


USA.gov is the U.S. government's official web portal to all federal, state and local government web resources and services.